Location: Unspecified
(0.0000°N, 0.0000°E)
Time: 03:44:52
(UTC+00:00)

Explorer 11/Cluster Stage 4 - Visible Passes

Search period start: 17 March 2026 00:00
Search period end: 27 March 2026 00:00
Orbit: 464 x 1175 km, 28.8° (Epoch: 16 March)

Date Brightness Start Highest point End Pass type
(mag) Time Alt. Az. Time Alt. Az. Time Alt. Az.
17 Mar 8.6 20:14:47 10° SW 20:15:03 12° SW 20:15:03 12° SW visible
18 Mar 9.4 05:19:36 10° N 05:23:17 15° NNE 05:27:08 10° ENE visible
18 Mar 7.1 19:50:25 10° SW 19:52:29 30° SW 19:52:29 30° SW visible
19 Mar 9.3 04:55:13 10° N 04:58:37 14° NNE 05:02:15 10° ENE visible
19 Mar 5.3 19:25:58 10° SW 19:29:49 77° SSE 19:29:56 76° ESE visible
20 Mar 9.3 04:30:53 10° N 04:33:59 14° NNE 04:37:18 10° NE visible
20 Mar 5.5 19:01:29 10° WSW 19:05:30 81° SSE 19:07:26 26° ENE visible
21 Mar 9.2 04:06:38 10° N 04:09:22 13° NNE 04:12:18 10° NE visible
21 Mar 5.6 18:36:55 10° WSW 18:41:10 85° SSE 18:44:52 10° ENE visible
22 Mar 9.2 03:43:28 11° NNE 03:44:47 12° NNE 03:47:14 10° NE visible
22 Mar 8.0 05:26:39 10° NW 05:32:51 47° NNE 05:40:00 10° ESE visible
22 Mar 8.5 20:02:35 10° NW 20:03:45 12° NNW 20:03:45 12° NNW visible
23 Mar 9.4 03:20:53 11° NE 03:20:53 11° NE 03:22:06 10° NE visible
23 Mar 7.9 05:02:13 10° NW 05:08:09 47° NNE 05:15:08 10° ESE visible
23 Mar 8.3 19:38:04 10° NW 19:39:35 12° NNW 19:41:02 10° N visible
24 Mar 7.7 04:39:36 20° NNW 04:43:28 47° NNE 04:50:13 10° ESE visible
24 Mar 8.4 19:13:27 10° WNW 19:15:11 12° NNW 19:16:49 10° N visible
25 Mar 7.5 04:17:05 36° N 04:18:50 46° NNE 04:25:18 10° ESE visible
25 Mar 8.5 18:48:46 10° WNW 18:50:46 13° NNW 18:52:40 10° N visible
26 Mar 7.5 03:54:37 45° NE 03:54:37 45° NE 04:00:24 10° ESE visible
26 Mar 7.5 05:36:20 10° W 05:42:08 46° SSW 05:49:01 10° SE visible
26 Mar 8.5 18:23:59 10° WNW 18:26:20 14° NNW 18:28:30 10° N visible
